Location: Blairvadach
(56.2780°N, 6.9720°W)
Time: 03:40:22
(UTC+00:00)

Envisat - Pass Details

Date: 18 November 2019
Orbit: 764 x 766 km, 98.1° (Epoch: 05 December)

Event Time Altitude Azimuth Distance (km) Brightness Sun altitude
Rises 17:55:34 0° 157° (SSE) 3,225 6.2 -13.6°
Reaches altitude 10° 17:57:52 10° 157° (SSE) 2,302 5.4 -13.9°
Maximum altitude 18:02:56 79° 72° (ENE) 788 2.9 -14.6°
Drops below altitude 10° 18:08:03 10° 346° (NNW) 2,317 5.5 -15.3°
Sets 18:10:22 0° 345° (NNW) 3,248 6.3 -15.6°
